Tracking 20040 objects as of 18-Nov-2019
Live streaming from Space Station
objects crossing your sky now

SUPERBIRD C

Track SUPERBIRD C now!
SUPERBIRD C is classified as:


NORAD ID: 24880
Int'l Code: 1997-036A
Perigee: 36,103.4 km
Apogee: 36,161.8 km
Inclination: 8.1 °
Period: 1,453.4 minutes
Semi major axis: 42503 km
RCS: 12.5892 m2 (large)
Launch date: July 28, 1997
Source: Japan (JPN)
Launch site: AIR FORCE EASTERN TEST RANGE (AFETR)

14 Ku-band; Asia-Pacific region; voice and video communications.
aabbcc
Your satellite tracking list
Your tracking list is empty




NASA's NSSDC Master Catalog

Two Line Element Set (TLE):
1 24880U 97036A   19321.02072958 -.00000222 +00000-0 +00000-0 0  9993
2 24880 008.0978 048.9707 0006875 285.0781 074.7414 00.99075073041055
Source of the keplerian elements: AFSPC